Location: Killam
(52.7910°N, 111.8608°W)
Time: 02:17:02
(UTC+00:00)

ISS - Pass Details

Date: 20 January 2026
Orbit: 413 x 428 km, 51.6° (Epoch: 13 February)

Event Time Altitude Azimuth Distance (km) Brightness Sun altitude
Rises 02:54:55 0° 273° (W) 2,368 1.4 -27.4°
Reaches altitude 10° 02:57:01 10° 271° (W) 1,507 0.0 -27.7°
Enters shadow 02:58:18 21° 267° (W) 997 -1.2 -27.9°
